Regional Weather Roundup
Issued by NWS

Home | Current Version | Previous Version | Graphics & Text | Print | Product List | Glossary On
Versions: 1 2 3 4 5 6 7 8 9 10 11 12 13 14 15 16 17 18 19 20 21 22 23 24 25 26 27 28 29 30 31 32 33 34 35 36 37 38 39 40 41 42 43 44 45 46 47 48 49 50
000
ASUS45 KABQ 252301
RWRNM
NEW MEXICO REGIONAL WEATHER ROUNDUP
NATIONAL WEATHER SERVICE ALBUQUERQUE NM
500 PM MDT MON MAY 25 2015

NOTE: "FAIR" MEANS FEW OR NO CLOUDS BELOW 12,000 FEET AGL WITH NO
       SIGNIFICANT WEATHER OR OBSTRUCTIONS TO VISION.

      THIS PRODUCT IS RELEASED AS TWO VERSIONS.  ONE VERSION NEAR
      THE TOP OF THE HOUR CONTAINING PRELIMINARY DATA FROM ALBUQUERQUE
      AND OTHER STATIONS.  A FINAL VERSION WITH ADDITIONAL DATA IS
      ISSUED ABOUT 10 MINUTES AFTER THE HOUR.

NMZ501-503-504-510>518-260000-
NORTHWEST PLATEAU/NORTHCENTRAL MOUNTAINS

CITY           SKY/WX    TMP DP  RH WIND       PRES   REMARKS
FARMINGTON     PTSUNNY   59  41  51 N22G28    29.99S
SANTA FE       PTSUNNY   64  35  34 S7        29.97F
TAOS           PTSUNNY   61  32  33 W5        30.00F

$$
NMZ402-403-502-505>509-260000-
WESTCENTRAL MOUNTAINS/SOUTHWEST MOUNTAINS

CITY           SKY/WX    TMP DP  RH WIND       PRES   REMARKS
GALLUP         CLOUDY    52  45  77 SW8       30.10S
GRANTS         CLOUDY    59  39  47 N15       30.08F
SILVER CITY      N/A     73  18  12 W20G25    30.02S

$$
NMZ407-409-411-412-260000-
SOUTHERN DESERTS

CITY           SKY/WX    TMP DP  RH WIND       PRES   REMARKS
LORDSBURG      FAIR      81  27  13 W12G24    29.95S
DEMING         SUNNY     82  25  12 W10G31    29.94F
ALAMOGORDO     SUNNY     81  27  13 SW12      29.91F
T OR C         CLOUDY    72  37  28 N16G24    29.93R

$$
NMZ519>523-260000-
CENTRAL VALLEYS/CENTRAL HIGHLANDS

CITY           SKY/WX    TMP DP  RH WIND       PRES   REMARKS
ALBUQUERQUE    CLOUDY    66  42  41 CALM      29.97R THUNDER
DOUBLE EAGLE   TSTM      59  43  55 W25G36    30.01R
MORIARTY ARPT  FAIR      63  37  38 W9        30.01S
CLINES CORNERS CLOUDY    59  32  36 W21G30    30.01R
BELEN          CLOUDY    60  49  67 E9G18     29.97R
SOCORRO        NOT AVBL

$$
NMZ524>526-539-540-260000-
SOUTHCENTRAL MOUNTAINS

CITY           SKY/WX    TMP DP  RH WIND       PRES   REMARKS
RUIDOSO        NOT AVBL

$$
NMZ527>531-260000-
NORTHEAST HIGHLANDS/NORTHEAST PLAINS

CITY           SKY/WX    TMP DP  RH WIND       PRES   REMARKS
LAS VEGAS      PTSUNNY   64  37  36 SW8       29.95F
RATON          CLOUDY    57  43  59 NE13      29.96F
CLAYTON        MOSUNNY   69  43  38 S9        29.88S

$$
NMZ532>537-260000-
EASTCENTRAL PLAINS

CITY           SKY/WX    TMP DP  RH WIND       PRES   REMARKS
TUCUMCARI      SUNNY     80  36  20 W21G29    29.79F
CANNON AFB     NOT AVBL
CLOVIS AIRPORT SUNNY     77  43  29 W15         N/A

$$
NMZ028-029-538-260000-
SOUTHEAST PLAINS

CITY           SKY/WX    TMP DP  RH WIND       PRES   REMARKS
ROSWELL        MOSUNNY   84  34  16 VRB6      29.84F
ARTESIA        MOSUNNY   84  34  16 SW8       29.83F
CARLSBAD       SUNNY     86  32  14 W15G21    29.82F
HOBBS          MOSUNNY   77  41  27 S8        29.89F


$$



USA.gov is the U.S. government's official web portal to all federal, state and local government web resources and services.